Voltar ao catálogo

DELTA 1 DEB

AtivoSSO
NORAD 10833·DEBRIS·🇺🇸 United States

Lançado Jul 29, 1976 de Vandenberg Space Force Base

Loading…

Próximas Passagens (próximas 24 horas)

TLE

AtualizadoSource: Space-Track

Época: Sep 14, 2026, 09:53 UTC

1 10833U 76077CD  26257.41197418  .00000133  00000-0  13897-2 0  9996
2 10833 102.1184 229.5327 0117185 345.9786 169.1616 12.34802470253426

Acompanhe DELTA 1 DEB em tempo real com AllMySat

Download on the App Store